Regional Weather Roundup
Issued by NWS

Home | Current Version | Previous Version | Graphics & Text | Print | Product List | Glossary On
Versions: 1 2 3 4 5 6 7 8 9 10 11 12 13 14 15 16 17 18 19 20 21 22 23 24 25 26 27 28 29 30 31 32 33 34 35 36 37 38 39 40 41 42 43 44 45 46 47 48 49 50
000
ASUS43 KTOP 280408
RWRKS

WEATHER ROUNDUP FOR KANSAS
NATIONAL WEATHER SERVICE GOODLAND KS
1100 PM CDT THU AUG 27 2015

NOTE:  "FAIR" INDICATES FEW OR NO CLOUDS BELOW 12,000 FEET WITH NO
SIGNIFICANT WEATHER AND/OR OBSTRUCTIONS TO VISIBILITY.

KSZ001>006-013>018-027>032-041>047-280500-
NORTHWEST KANSAS

CITY           SKY/WX    TMP DP  RH WIND       PRES   REMARKS
GOODLAND       PTCLDY    73  60  63 NW9       30.00R
HAYS           MOCLDY    79  61  53 S22G28    29.87R
HILL CITY      CLOUDY    79  63  57 S13G21    29.87R
RUSSELL        MOCLDY    75  69  81 S15       29.85F
$$

KSZ061>065-074>080-084>089-280500-
SOUTHWEST KANSAS

CITY           SKY/WX    TMP DP  RH WIND       PRES   REMARKS
DODGE CITY     CLOUDY    72  62  71 SE13      29.96S
ELKHART          N/A     69  59  70 S5          N/A
GARDEN CITY    LGT RAIN  72  64  76 SE12      29.94R
GREAT BEND     CLOUDY    75  66  73 S13       29.92R
LIBERAL        CLOUDY    79  55  44 SW12      29.97R
PRATT          LGT RAIN  77  66  69 SE6       29.99R
$$

KSZ066>073-081>083-090>101-280500-
SOUTHEAST KANSAS

CITY           SKY/WX    TMP DP  RH WIND       PRES   REMARKS
CHANUTE        MOCLDY    69  64  84 SE10      29.99S
COFFEYVILLE    MOCLDY    68  64  87 SE6       29.99F
HUTCHINSON     LGT RAIN  78  67  68 S9        29.93R
MEDICINE LODGE   N/A     80  69  69 S12G23    29.92R
NEWTON         CLOUDY    73  63  68 S16       29.96R
WICHITA INTL   CLOUDY    75  65  70 S13       29.93S
WICHITA JABRA  CLOUDY    74  64  71 S15       29.93F
WICHITA MCCONL CLOUDY    74  64  69 SE14      29.94S
WINFIELD       CLOUDY    74  65  73 SE13      29.96R
$$

KSZ007>012-019>026-033>040-048>060-102>105-280500-
NORTHEAST KANSAS

CITY           SKY/WX    TMP DP  RH WIND       PRES   REMARKS
CONCORDIA      CLOUDY    74  67  78 S17       29.90R
EMPORIA        CLOUDY    72  64  76 S10       29.97R
LAWRENCE       CLOUDY    69  66  90 SE6       29.98S
MANHATTAN      CLOUDY    76  67  73 CALM      29.93R
MARYSVILLE     CLOUDY   N/A N/A N/A SE13G20   29.89F
OLATHE IND     CLOUDY    70  66  87 SE14      30.00F
OLATHE EXE     CLOUDY    68  65  90 SE10      29.98F
SALINA         LGT RAIN  78  68  71 CALM      29.96R
TOPEKA BILLARD CLOUDY    71  67  87 SE7       29.97F
TOPEKA FORBES  CLOUDY    72  67  84 SE7       29.97S
$$



USA.gov is the U.S. government's official web portal to all federal, state and local government web resources and services.